When you browse on this site, cookies collect data to enhance your experience and personalize the content and advertising you see.
Visit our Privacy Policy to learn more. By continuing to use the site, you agree to this use of cookies and data.
  • In Czech Republic
  • List of Countries
  • For 7 days
  • Water Temperature
  • Weather Map
  • Weather Widgets
  • user-avatar
    Login

    Hourly Weather Bima

    Today, 11 December, Wednesday

    Time Temperature Precipitation Wind Pressure Humidity
    00:00 -1°C° 0 mm 4 mps 755 mmHg 95%
    01:00 -1°C° 0 mm 4 mps 755 mmHg 96%
    02:00 -1°C° 0 mm 4 mps 755 mmHg 96%
    03:00 -2°C° 0 mm 4 mps 754 mmHg 93%
    04:00 -1°C° 0.1 mm 4 mps 754 mmHg 93%
    05:00 -1°C° 0.1 mm 5 mps 754 mmHg 94%
    06:00 -1°C° 0.1 mm 5 mps 754 mmHg 94%
    07:00 -1°C° 0 mm 5 mps 753 mmHg 94%
    08:00 -1°C° 0 mm 5 mps 753 mmHg 94%
    09:00 -1°C° 0 mm 4 mps 753 mmHg 94%
    10:00 -1°C° 0.1 mm 4 mps 753 mmHg 95%
    11:00 -1°C° 0.1 mm 4 mps 753 mmHg 96%
    12:00 -1°C° 0.1 mm 4 mps 752 mmHg 97%
    13:00 0°C° 0.2 mm 5 mps 752 mmHg 97%
    14:00 0°C° 0.2 mm 5 mps 752 mmHg 97%
    15:00 0°C° 0 mm 5 mps 753 mmHg 97%
    16:00 0°C° 0.1 mm 5 mps 753 mmHg 97%
    17:00 0°C° 0.1 mm 5 mps 753 mmHg 96%
    18:00 -1°C° 0.1 mm 6 mps 753 mmHg 96%
    19:00 -1°C° 0 mm 5 mps 754 mmHg 91%
    20:00 -4°C° 0 mm 5 mps 754 mmHg 87%
    21:00 -5°C° 0 mm 5 mps 755 mmHg 82%
    22:00 -5°C° 0 mm 5 mps 756 mmHg 83%
    23:00 -6°C° 0 mm 5 mps 756 mmHg 84%

    Tomorrow, 12 December, Thursday

    Time Temperature Precipitation Wind Pressure Humidity
    00:00 -7°C° 0 mm 5 mps 757 mmHg 85%
    01:00 -7°C° 0 mm 5 mps 757 mmHg 84%
    02:00 -7°C° 0 mm 5 mps 758 mmHg 83%
    03:00 -7°C° 0 mm 5 mps 759 mmHg 82%
    04:00 -7°C° 0 mm 4 mps 759 mmHg 83%
    05:00 -8°C° 0 mm 4 mps 759 mmHg 84%
    06:00 -8°C° 0 mm 4 mps 759 mmHg 85%
    07:00 -7°C° 0 mm 3 mps 760 mmHg 86%
    08:00 -7°C° 0 mm 3 mps 760 mmHg 86%
    09:00 -6°C° 0 mm 2 mps 761 mmHg 87%
    10:00 -6°C° 0 mm 2 mps 761 mmHg 85%
    11:00 -5°C° 0 mm 2 mps 761 mmHg 84%
    12:00 -5°C° 0 mm 2 mps 761 mmHg 82%
    13:00 -3°C° 0 mm 1 mps 761 mmHg 83%
    14:00 -4°C° 0 mm 1 mps 761 mmHg 85%
    15:00 -4°C° 0 mm 1 mps 762 mmHg 86%
    16:00 -4°C° 0 mm 1 mps 762 mmHg 87%
    17:00 -4°C° 0 mm 1 mps 762 mmHg 87%
    18:00 -6°C° 0 mm 2 mps 761 mmHg 88%
    19:00 -4°C° 0 mm 1 mps 762 mmHg 87%
    20:00 -4°C° 0 mm 1 mps 762 mmHg 86%
    21:00 -5°C° 0 mm 0 mps 762 mmHg 86%
    22:00 -4°C° 0 mm 1 mps 762 mmHg 85%
    23:00 -4°C° 0 mm 1 mps 761 mmHg 85%

    Day after tomorrow, 13 December, Friday

    Time Temperature Precipitation Wind Pressure Humidity
    00:00 -7°C° 0 mm 2 mps 761 mmHg 84%
    01:00 -7°C° 0 mm 2 mps 761 mmHg 84%
    02:00 -7°C° 0 mm 2 mps 761 mmHg 84%
    03:00 -7°C° 0 mm 2 mps 762 mmHg 84%
    04:00 -7°C° 0 mm 2 mps 761 mmHg 84%
    05:00 -7°C° 0 mm 2 mps 761 mmHg 85%
    06:00 -7°C° 0 mm 2 mps 761 mmHg 85%
    07:00 -7°C° 0 mm 2 mps 761 mmHg 84%
    08:00 -7°C° 0 mm 2 mps 761 mmHg 84%
    09:00 -7°C° 0 mm 2 mps 761 mmHg 83%
    10:00 -6°C° 0 mm 2 mps 761 mmHg 81%
    11:00 -6°C° 0 mm 2 mps 761 mmHg 79%
    12:00 -5°C° 0 mm 2 mps 761 mmHg 77%
    13:00 -6°C° 0 mm 3 mps 761 mmHg 78%
    14:00 -7°C° 0 mm 3 mps 761 mmHg 78%
    15:00 -7°C° 0 mm 3 mps 761 mmHg 79%
    16:00 -7°C° 0 mm 3 mps 761 mmHg 79%
    17:00 -6°C° 0 mm 2 mps 761 mmHg 78%
    18:00 -6°C° 0 mm 2 mps 761 mmHg 78%
    19:00 -6°C° 0 mm 2 mps 761 mmHg 78%
    20:00 -6°C° 0 mm 2 mps 762 mmHg 79%
    21:00 -6°C° 0 mm 2 mps 762 mmHg 79%
    22:00 -6°C° 0 mm 2 mps 762 mmHg 79%
    23:00 -7°C° 0 mm 3 mps 762 mmHg 79%

    14 December, Saturday

    Time Temperature Precipitation Wind Pressure Humidity
    00:00 -8°C° 0 mm 3 mps 762 mmHg 79%
    01:00 -8°C° 0 mm 3 mps 762 mmHg 78%
    02:00 -8°C° 0 mm 3 mps 762 mmHg 78%
    03:00 -8°C° 0 mm 3 mps 762 mmHg 77%
    04:00 -8°C° 0 mm 3 mps 762 mmHg 76%
    05:00 -8°C° 0 mm 3 mps 762 mmHg 75%
    06:00 -8°C° 0 mm 3 mps 762 mmHg 74%
    07:00 -8°C° 0 mm 3 mps 763 mmHg 74%
    08:00 -8°C° 0 mm 3 mps 763 mmHg 75%
    09:00 -8°C° 0 mm 3 mps 764 mmHg 75%
    10:00 -7°C° 0 mm 3 mps 764 mmHg 74%
    11:00 -7°C° 0 mm 3 mps 764 mmHg 72%
    12:00 -7°C° 0 mm 4 mps 764 mmHg 71%
    13:00 -7°C° 0 mm 4 mps 764 mmHg 72%
    14:00 -7°C° 0 mm 3 mps 764 mmHg 73%
    15:00 -7°C° 0 mm 3 mps 764 mmHg 75%
    16:00 -7°C° 0 mm 3 mps 764 mmHg 75%
    17:00 -8°C° 0 mm 4 mps 764 mmHg 75%
    18:00 -8°C° 0 mm 4 mps 764 mmHg 76%
    19:00 -8°C° 0 mm 4 mps 764 mmHg 76%
    20:00 -9°C° 0 mm 4 mps 764 mmHg 76%
    21:00 -9°C° 0 mm 4 mps 764 mmHg 76%
    22:00 -9°C° 0 mm 4 mps 764 mmHg 76%
    23:00 -9°C° 0 mm 4 mps 764 mmHg 76%

    15 December, Sunday

    Time Temperature Precipitation Wind Pressure Humidity
    00:00 -9°C° 0 mm 4 mps 764 mmHg 77%
    01:00 -9°C° 0 mm 4 mps 764 mmHg 77%
    02:00 -9°C° 0 mm 4 mps 764 mmHg 76%
    03:00 -9°C° 0 mm 4 mps 764 mmHg 76%
    04:00 -9°C° 0 mm 4 mps 764 mmHg 76%
    05:00 -10°C° 0 mm 4 mps 764 mmHg 75%
    06:00 -10°C° 0 mm 4 mps 764 mmHg 75%
    07:00 -10°C° 0 mm 5 mps 763 mmHg 74%
    08:00 -10°C° 0 mm 5 mps 763 mmHg 74%
    09:00 -10°C° 0 mm 5 mps 763 mmHg 73%
    10:00 -8°C° 0 mm 5 mps 763 mmHg 71%
    11:00 -8°C° 0 mm 5 mps 763 mmHg 70%
    12:00 -8°C° 0 mm 5 mps 763 mmHg 68%
    13:00 -7°C° 0 mm 5 mps 763 mmHg 69%
    14:00 -7°C° 0 mm 5 mps 763 mmHg 70%
    15:00 -7°C° 0 mm 5 mps 762 mmHg 71%
    16:00 -7°C° 0 mm 5 mps 762 mmHg 72%
    17:00 -7°C° 0 mm 5 mps 762 mmHg 74%
    18:00 -7°C° 0 mm 5 mps 762 mmHg 75%
    19:00 -7°C° 0 mm 5 mps 762 mmHg 76%
    20:00 -8°C° 0 mm 5 mps 762 mmHg 78%
    21:00 -8°C° 0 mm 5 mps 762 mmHg 80%
    22:00 -7°C° 0 mm 5 mps 762 mmHg 80%
    23:00 -7°C° 0 mm 5 mps 762 mmHg 81%

    16 December, Monday

    Time Temperature Precipitation Wind Pressure Humidity
    00:00 -8°C° 0 mm 6 mps 762 mmHg 81%
    01:00 -8°C° 0 mm 6 mps 761 mmHg 82%
    02:00 -8°C° 0 mm 6 mps 761 mmHg 83%
    03:00 -8°C° 0 mm 6 mps 761 mmHg 83%
    04:00 -8°C° 0 mm 6 mps 761 mmHg 84%
    05:00 -8°C° 0 mm 6 mps 760 mmHg 86%
    06:00 -8°C° 0 mm 6 mps 760 mmHg 87%
    07:00 -8°C° 0.1 mm 6 mps 760 mmHg 88%
    08:00 -8°C° 0.1 mm 6 mps 760 mmHg 89%
    09:00 -8°C° 0.1 mm 7 mps 760 mmHg 89%
    10:00 -7°C° 0.1 mm 7 mps 759 mmHg 90%
    11:00 -7°C° 0.1 mm 7 mps 759 mmHg 91%
    12:00 -7°C° 0.1 mm 7 mps 758 mmHg 93%
    13:00 -7°C° 0.1 mm 7 mps 758 mmHg 93%
    14:00 -6°C° 0.1 mm 7 mps 757 mmHg 93%
    15:00 -6°C° 0.1 mm 7 mps 757 mmHg 93%
    16:00 -6°C° 0.2 mm 7 mps 756 mmHg 94%
    17:00 -6°C° 0.2 mm 7 mps 756 mmHg 95%
    18:00 -6°C° 0.2 mm 8 mps 755 mmHg 95%
    19:00 -5°C° 0.8 mm 8 mps 754 mmHg 96%
    20:00 -5°C° 0.8 mm 8 mps 754 mmHg 96%
    21:00 -5°C° 0.8 mm 8 mps 753 mmHg 96%
    22:00 -3°C° 0.6 mm 7 mps 753 mmHg 96%
    23:00 -2°C° 0.6 mm 6 mps 753 mmHg 96%
    Show more